^^
Datos históricos de la estación: Murcia-Puente Tocinos
Diario Informe para Junio 2, 2019 Unidades:  Métrico    Inglés   Ambas
Diario Semanal Mensual Anual Configurable
  Máximo: Mínimo: Media:
Temperatura: 28.9 °C 15.9 °C 22.2 °C
Punto de rocio: 11.9 °C 3.7 °C 6.9 °C
Humedad: 61% 21% 40%
Velocidad viento: 15.6km/h 0.0km/h 8km/h
Racha viento: 29.6km/h - -
Viento- - ESE
Presión: 1019.7 hPa 1015.6 hPa -
Precipitación: 0.0 mm    
Historical Graphs
 
 
Tabla de datos para Junio 2, 2019
Hora Temperatura Punto de rocio Presión Viento Velocidad viento Racha viento Humedad Intensidad lluvia(por hora) Nubes
00:04 20.6 °C 8.6 °C 1019.6 hPa NE 6.9 km/h 9.3 km/h 46% 0.0 mm CLR
00:09 20.5 °C 8.8 °C 1019.6 hPa NE 6.4 km/h 9.3 km/h 47% 0.0 mm CLR
00:14 20.4 °C 8.7 °C 1019.6 hPa NE 6.4 km/h 7.4 km/h 47% 0.0 mm CLR
00:19 20.3 °C 8.6 °C 1019.6 hPa NE 5.0 km/h 3.9 km/h 47% 0.0 mm CLR
00:24 20.2 °C 8.8 °C 1019.6 hPa NE 5.0 km/h 7.4 km/h 48% 0.0 mm CLR
00:29 20.1 °C 8.7 °C 1019.6 hPa NE 3.2 km/h   48% 0.0 mm CLR
00:34 20.0 °C 8.7 °C 1019.7 hPa NE 3.2 km/h 3.7 km/h 48% 0.0 mm CLR
00:39 19.8 °C 8.4 °C 1019.7 hPa NE 2.9 km/h 3.7 km/h 48% 0.0 mm CLR
00:44 19.6 °C 8.6 °C 1019.7 hPa NE 2.9 km/h 5.0 km/h 49% 0.0 mm CLR
00:49 19.4 °C 8.4 °C 1019.6 hPa NNE 3.2 km/h 5.6 km/h 49% 0.0 mm CLR
00:54 19.2 °C 8.2 °C 1019.6 hPa NE 3.2 km/h 7.4 km/h 49% 0.0 mm CLR
00:59 19.1 °C 8.1 °C 1019.6 hPa NNE 3.9 km/h 7.4 km/h 49% 0.0 mm CLR
01:04 19.0 °C 8.3 °C 1019.6 hPa ENE 3.9 km/h 7.4 km/h 50% 0.0 mm CLR
01:09 18.9 °C 8.2 °C 1019.6 hPa ENE 4.7 km/h 7.4 km/h 50% 0.0 mm CLR
01:14 18.8 °C 8.4 °C 1019.6 hPa ENE 4.7 km/h 3.7 km/h 51% 0.0 mm CLR
01:19 18.8 °C 8.4 °C 1019.6 hPa ENE 3.9 km/h 3.7 km/h 51% 0.0 mm CLR
01:24 18.8 °C 8.4 °C 1019.6 hPa ENE 3.9 km/h 3.7 km/h 51% 0.0 mm CLR
01:29 18.8 °C 8.4 °C 1019.6 hPa Calm     51% 0.0 mm CLR
01:34 18.7 °C 8.6 °C 1019.6 hPa Calm   3.9 km/h 52% 0.0 mm CLR
01:39 18.6 °C 8.6 °C 1019.6 hPa North 2.3 km/h   52% 0.0 mm CLR
01:44 18.6 °C 8.8 °C 1019.6 hPa North 2.3 km/h   53% 0.0 mm CLR
01:49 18.4 °C 8.7 °C 1019.6 hPa Calm     53% 0.0 mm CLR
01:54 18.4 °C 8.7 °C 1019.6 hPa Calm     53% 0.0 mm CLR
01:59 18.4 °C 8.7 °C 1019.6 hPa Calm   3.7 km/h 53% 0.0 mm CLR
02:04 18.4 °C 8.9 °C 1019.5 hPa Calm   3.7 km/h 54% 0.0 mm CLR
02:09 18.3 °C 8.8 °C 1019.5 hPa North 2.3 km/h 3.7 km/h 54% 0.0 mm CLR
02:14 18.3 °C 8.8 °C 1019.5 hPa North 2.3 km/h 4.7 km/h 54% 0.0 mm CLR
02:19 18.2 °C 8.7 °C 1019.3 hPa North 2.9 km/h 3.7 km/h 54% 0.0 mm CLR
02:24 18.2 °C 9.0 °C 1019.3 hPa North 2.9 km/h   55% 0.0 mm CLR
02:29 18.1 °C 8.9 °C 1019.3 hPa Calm     55% 0.0 mm CLR
02:34 18.1 °C 8.9 °C 1019.2 hPa Calm     55% 0.0 mm CLR
02:39 18.0 °C 8.8 °C 1019.2 hPa Calm     55% 0.0 mm CLR
02:44 17.9 °C 8.7 °C 1019.2 hPa Calm     55% 0.0 mm CLR
02:49 17.9 °C 9.0 °C 1019.1 hPa Calm     56% 0.0 mm CLR
02:54 17.9 °C 8.4 °C 1019.1 hPa Calm     54% 0.0 mm CLR
02:59 17.8 °C 8.4 °C 1019.1 hPa Calm   3.7 km/h 54% 0.0 mm CLR
03:04 17.8 °C 8.1 °C 1019.1 hPa Calm   3.7 km/h 53% 0.0 mm CLR
03:09 17.8 °C 8.1 °C 1019.1 hPa North 2.3 km/h   53% 0.0 mm CLR
03:14 17.7 °C 8.3 °C 1019.1 hPa North 2.3 km/h   54% 0.0 mm CLR
03:19 17.8 °C 8.4 °C 1019.1 hPa Calm     54% 0.0 mm CLR
03:24 17.8 °C 8.6 °C 1019.1 hPa Calm     55% 0.0 mm CLR
03:29 17.8 °C 8.6 °C 1019.1 hPa Calm     55% 0.0 mm CLR
03:34 17.7 °C 8.6 °C 1019.0 hPa Calm     55% 0.0 mm CLR
03:39 17.7 °C 8.6 °C 1019.0 hPa Calm     55% 0.0 mm CLR
03:44 17.7 °C 8.0 °C 1019.0 hPa Calm   3.7 km/h 53% 0.0 mm CLR
03:49 17.6 °C 7.6 °C 1019.0 hPa Calm   3.7 km/h 52% 0.0 mm CLR
03:54 17.6 °C 7.3 °C 1019.0 hPa Calm   5.6 km/h 51% 0.0 mm CLR
03:59 17.6 °C 7.6 °C 1019.0 hPa ESE 3.2 km/h 5.6 km/h 52% 0.0 mm CLR
04:04 17.5 °C 7.6 °C 1018.9 hPa SSE 3.2 km/h 6.4 km/h 52% 0.0 mm CLR
04:09 17.4 °C 7.4 °C 1018.9 hPa SE 3.9 km/h 7.6 km/h 52% 0.0 mm CLR
04:14 17.3 °C 7.1 °C 1018.9 hPa South 3.9 km/h 7.4 km/h 51% 0.0 mm CLR
04:19 17.3 °C 7.1 °C 1018.7 hPa SSW 5.8 km/h 9.3 km/h 51% 0.0 mm CLR
04:24 17.3 °C 7.1 °C 1018.7 hPa SSW 5.8 km/h 7.4 km/h 51% 0.0 mm CLR
04:29 17.3 °C 6.8 °C 1018.7 hPa SSW 5.8 km/h 7.4 km/h 50% 0.0 mm CLR
04:34 17.4 °C 6.9 °C 1018.7 hPa SSW 5.8 km/h 10.0 km/h 50% 0.0 mm CLR
04:39 17.4 °C 6.6 °C 1018.7 hPa SW 6.4 km/h 9.3 km/h 49% 0.0 mm CLR
04:44 17.4 °C 6.6 °C 1018.7 hPa WSW 6.4 km/h 7.4 km/h 49% 0.0 mm CLR
04:49 17.3 °C 6.5 °C 1018.5 hPa WSW 5.8 km/h 7.4 km/h 49% 0.0 mm CLR
04:54 17.3 °C 6.5 °C 1018.5 hPa SW 5.8 km/h 11.1 km/h 49% 0.0 mm CLR
04:59 17.2 °C 6.4 °C 1018.5 hPa SSW 5.8 km/h 9.3 km/h 49% 0.0 mm CLR
05:04 17.1 °C 6.6 °C 1018.5 hPa SW 5.8 km/h 9.3 km/h 50% 0.0 mm CLR
05:09 17.1 °C 6.6 °C 1018.5 hPa SW 5.8 km/h 11.1 km/h 50% 0.0 mm CLR
05:14 17.1 °C 6.6 °C 1018.5 hPa SW 5.8 km/h 7.6 km/h 50% 0.0 mm CLR
05:19 17.1 °C 6.6 °C 1018.5 hPa SW 6.9 km/h 9.3 km/h 50% 0.0 mm CLR
05:24 17.1 °C 6.9 °C 1018.5 hPa WSW 6.9 km/h 5.6 km/h 51% 0.0 mm CLR
05:29 17.1 °C 6.9 °C 1018.5 hPa SW 5.0 km/h 7.4 km/h 51% 0.0 mm CLR
05:34 17.1 °C 6.9 °C 1018.5 hPa SW 5.0 km/h 7.4 km/h 51% 0.0 mm CLR
05:39 17.0 °C 6.8 °C 1018.5 hPa SSW 4.7 km/h 5.6 km/h 51% 0.0 mm CLR
05:44 16.9 °C 6.7 °C 1018.5 hPa SSW 4.7 km/h 7.4 km/h 51% 0.0 mm CLR
05:49 16.9 °C 7.0 °C 1018.5 hPa South 4.7 km/h 7.4 km/h 52% 0.0 mm CLR
05:54 16.7 °C 6.8 °C 1018.5 hPa South 4.7 km/h 6.9 km/h 52% 0.0 mm CLR
05:59 16.6 °C 6.7 °C 1018.5 hPa SSW 5.8 km/h 7.4 km/h 52% 0.0 mm CLR
06:04 16.6 °C 6.7 °C 1018.5 hPa SSW 5.8 km/h 9.3 km/h 52% 0.0 mm CLR
06:09 16.6 °C 6.7 °C 1018.5 hPa SSW 5.0 km/h 7.4 km/h 52% 0.0 mm CLR
06:14 16.7 °C 6.5 °C 1018.5 hPa SW 5.0 km/h 7.4 km/h 51% 0.0 mm CLR
06:19 16.7 °C 6.2 °C 1018.4 hPa SW 5.8 km/h 7.4 km/h 50% 0.0 mm CLR
06:24 16.7 °C 6.2 °C 1018.4 hPa South 5.8 km/h 8.4 km/h 50% 0.0 mm CLR
06:29 16.7 °C 6.2 °C 1018.4 hPa SSW 5.8 km/h 8.4 km/h 50% 0.0 mm CLR
06:34 16.7 °C 5.9 °C 1018.5 hPa SW 5.8 km/h 9.3 km/h 49% 0.0 mm CLR
06:39 16.7 °C 5.9 °C 1018.5 hPa SSW 5.0 km/h 7.4 km/h 49% 0.0 mm CLR
06:44 16.7 °C 6.2 °C 1018.5 hPa SSW 5.0 km/h 5.6 km/h 50% 0.0 mm CLR
06:49 16.6 °C 6.4 °C 1018.5 hPa South 3.9 km/h 7.4 km/h 51% 0.0 mm CLR
06:54 16.4 °C 6.8 °C 1018.5 hPa South 3.9 km/h 7.4 km/h 53% 0.0 mm CLR
06:59 16.2 °C 6.9 °C 1018.5 hPa South 4.7 km/h 6.4 km/h 54% 0.0 mm CLR
07:04 16.0 °C 6.7 °C 1018.6 hPa South 4.7 km/h 7.4 km/h 54% 0.0 mm CLR
07:09 15.9 °C 6.9 °C 1018.6 hPa South 4.7 km/h 5.6 km/h 55% 0.0 mm CLR
07:14 15.9 °C 6.9 °C 1018.6 hPa South 4.7 km/h 5.6 km/h 55% 0.0 mm CLR
07:19 15.9 °C 6.3 °C 1018.7 hPa SSW 3.9 km/h 7.4 km/h 53% 0.0 mm CLR
07:24 16.1 °C 6.2 °C 1018.7 hPa WSW 3.9 km/h 7.4 km/h 52% 0.0 mm CLR
07:29 16.3 °C 6.1 °C 1018.7 hPa SW 4.7 km/h 9.3 km/h 51% 0.0 mm CLR
07:34 16.5 °C 6.1 °C 1018.8 hPa SW 4.7 km/h 7.4 km/h 50% 0.0 mm CLR
07:39 16.6 °C 5.8 °C 1018.8 hPa SW 5.8 km/h 9.3 km/h 49% 0.0 mm CLR
07:44 16.8 °C 6.0 °C 1018.8 hPa SSW 5.8 km/h 9.3 km/h 49% 0.0 mm CLR
07:49 16.9 °C 6.7 °C 1018.8 hPa SSW 5.8 km/h 5.6 km/h 51% 0.0 mm CLR
07:54 17.1 °C 6.6 °C 1018.8 hPa SW 5.8 km/h 7.4 km/h 50% 0.0 mm CLR
07:59 17.2 °C 6.1 °C 1018.8 hPa West 4.7 km/h 11.1 km/h 48% 0.0 mm CLR
08:04 17.3 °C 5.9 °C 1018.6 hPa SW 4.7 km/h 9.3 km/h 47% 0.0 mm CLR
08:09 17.3 °C 5.9 °C 1018.6 hPa WSW 7.6 km/h 11.1 km/h 47% 0.0 mm CLR
08:14 17.4 °C 6.6 °C 1018.6 hPa SW 7.6 km/h 7.4 km/h 49% 0.0 mm CLR
08:19 17.6 °C 7.3 °C 1018.7 hPa SSE 5.8 km/h 7.4 km/h 51% 0.0 mm CLR
08:24 17.5 °C 7.2 °C 1018.7 hPa SSW 5.8 km/h 7.4 km/h 51% 0.0 mm CLR
08:29 17.6 °C 6.4 °C 1018.7 hPa SW 4.7 km/h 10.0 km/h 48% 0.0 mm CLR
08:34 17.7 °C 6.2 °C 1018.8 hPa WSW 4.7 km/h 9.3 km/h 47% 0.0 mm CLR
08:39 17.9 °C 6.1 °C 1018.8 hPa WSW 6.9 km/h 11.1 km/h 46% 0.0 mm CLR
08:44 17.9 °C 6.4 °C 1018.8 hPa WSW 6.9 km/h 9.3 km/h 47% 0.0 mm CLR
08:49 18.0 °C 6.5 °C 1018.9 hPa SW 7.6 km/h 9.3 km/h 47% 0.0 mm CLR
08:54 18.2 °C 6.7 °C 1018.9 hPa South 7.6 km/h 7.4 km/h 47% 0.0 mm CLR
08:59 18.2 °C 6.4 °C 1018.9 hPa SSW 6.4 km/h 11.9 km/h 46% 0.0 mm CLR
09:04 18.3 °C 6.5 °C 1018.9 hPa SSW 6.4 km/h 9.3 km/h 46% 0.0 mm CLR
09:09 18.5 °C 6.7 °C 1018.9 hPa South 6.4 km/h 7.6 km/h 46% 0.0 mm CLR
09:14 18.7 °C 6.8 °C 1018.9 hPa SW 6.4 km/h 11.1 km/h 46% 0.0 mm CLR
09:19 18.9 °C 6.7 °C 1018.9 hPa South 6.4 km/h 8.7 km/h 45% 0.0 mm CLR
09:24 19.1 °C 6.6 °C 1018.9 hPa South 6.4 km/h 11.1 km/h 44% 0.0 mm CLR
09:29 19.2 °C 6.3 °C 1018.9 hPa South 7.6 km/h 9.3 km/h 43% 0.0 mm CLR
09:34 19.4 °C 6.2 °C 1019.0 hPa South 7.6 km/h 13.0 km/h 42% 0.0 mm CLR
09:39 19.4 °C 6.2 °C 1019.0 hPa WSW 8.4 km/h 13.0 km/h 42% 0.0 mm CLR
09:44 19.6 °C 6.3 °C 1019.0 hPa SSW 8.4 km/h 9.3 km/h 42% 0.0 mm CLR
09:49 19.7 °C 6.4 °C 1019.0 hPa SSW 8.4 km/h 9.3 km/h 42% 0.0 mm CLR
09:54 19.8 °C 6.2 °C 1019.0 hPa SSW 8.4 km/h 11.1 km/h 41% 0.0 mm CLR
09:59 20.1 °C 6.1 °C 1019.0 hPa SSW 7.6 km/h 9.3 km/h 40% 0.0 mm CLR
10:04 20.3 °C 6.2 °C 1018.9 hPa South 7.6 km/h 9.3 km/h 40% 0.0 mm CLR
10:09 20.6 °C 6.2 °C 1018.9 hPa SW 6.9 km/h 11.1 km/h 39% 0.0 mm CLR
10:14 20.7 °C 5.9 °C 1018.9 hPa WSW 6.9 km/h 9.3 km/h 38% 0.0 mm CLR
10:19 20.9 °C 6.1 °C 1018.8 hPa SW 5.8 km/h 9.5 km/h 38% 0.0 mm CLR
10:24 21.2 °C 6.3 °C 1018.8 hPa SW 5.8 km/h 7.4 km/h 38% 0.0 mm CLR
10:29 21.6 °C 6.3 °C 1018.8 hPa WNW 5.0 km/h 8.4 km/h 37% 0.0 mm CLR
10:34 21.8 °C 6.4 °C 1018.8 hPa WSW 5.0 km/h 3.7 km/h 37% 0.0 mm CLR
10:39 21.9 °C 6.2 °C 1018.8 hPa SW 4.7 km/h 9.3 km/h 36% 0.0 mm CLR
10:42 22.1 °C 6.3 °C 1018.8 hPa SW 4.7 km/h 3.7 km/h 36% 0.0 mm CLR
12:29 25.6 °C 4.1 °C 1018.4 hPa NE 8.7 km/h 14.8 km/h 25% 0.0 mm CLR
12:34 26.1 °C 3.9 °C 1018.3 hPa NE 8.7 km/h 19.0 km/h 24% 0.0 mm CLR
12:39 25.9 °C 3.8 °C 1018.3 hPa East 10.3 km/h 18.5 km/h 24% 0.0 mm CLR
12:44 25.8 °C 3.7 °C 1018.3 hPa North 10.3 km/h 13.0 km/h 24% 0.0 mm CLR
12:49 26.1 °C 4.5 °C 1018.2 hPa North 8.7 km/h 10.0 km/h 25% 0.0 mm CLR
12:54 26.3 °C 4.1 °C 1018.2 hPa NNE 8.7 km/h 13.0 km/h 24% 0.0 mm CLR
12:59 26.6 °C 3.8 °C 1018.2 hPa NNE 6.4 km/h 18.3 km/h 23% 0.0 mm CLR
13:05 26.6 °C 3.8 °C 1018.1 hPa NE 8.0 km/h 19.3 km/h 23% 0.0 mm CLR
13:09 26.7 °C 4.4 °C 1018.1 hPa NE 8.4 km/h 11.1 km/h 24% 0.0 mm CLR
13:14 26.9 °C 4.0 °C 1018.1 hPa NE 8.4 km/h 14.8 km/h 23% 0.0 mm CLR
13:19 26.8 °C 4.6 °C 1017.9 hPa ENE 8.7 km/h 8.7 km/h 24% 0.0 mm CLR
13:24 26.9 °C 4.6 °C 1017.9 hPa ESE 8.7 km/h 18.5 km/h 24% 0.0 mm CLR
13:29 27.1 °C 4.2 °C 1017.9 hPa North 10.0 km/h 16.7 km/h 23% 0.0 mm CLR
13:34 27.2 °C 4.3 °C 1017.7 hPa NNW 10.0 km/h 17.2 km/h 23% 0.0 mm CLR
13:39 27.1 °C 4.2 °C 1017.7 hPa NNE 12.2 km/h 14.8 km/h 23% 0.0 mm CLR
13:44 27.2 °C 4.3 °C 1017.7 hPa NE 12.2 km/h 13.0 km/h 23% 0.0 mm CLR
13:49 27.3 °C 4.3 °C 1017.5 hPa North 8.7 km/h 14.8 km/h 23% 0.0 mm CLR
13:54 27.4 °C 4.4 °C 1017.5 hPa NNE 8.7 km/h 16.7 km/h 23% 0.0 mm CLR
13:59 27.6 °C 4.6 °C 1017.5 hPa WSW 8.7 km/h 20.4 km/h 23% 0.0 mm CLR
14:04 27.7 °C 4.1 °C 1017.2 hPa NNW 8.7 km/h 18.5 km/h 22% 0.0 mm CLR
14:09 27.8 °C 4.8 °C 1017.2 hPa NE 10.0 km/h 22.2 km/h 23% 0.0 mm CLR
14:14 28.0 °C 4.3 °C 1017.2 hPa ENE 10.0 km/h 14.8 km/h 22% 0.0 mm CLR
14:19 28.2 °C 4.4 °C 1017.1 hPa NE 10.0 km/h 18.0 km/h 22% 0.0 mm CLR
14:24 28.2 °C 4.4 °C 1017.1 hPa NE 10.0 km/h 22.2 km/h 22% 0.0 mm CLR
14:29 28.1 °C 4.4 °C 1017.1 hPa NNW 11.1 km/h 14.8 km/h 22% 0.0 mm CLR
14:34 28.3 °C 4.6 °C 1016.8 hPa NNW 11.1 km/h 16.7 km/h 22% 0.0 mm CLR
14:39 28.5 °C 4.7 °C 1016.8 hPa ESE 8.4 km/h 9.3 km/h 22% 0.0 mm CLR
14:44 28.6 °C 4.8 °C 1016.8 hPa NE 8.4 km/h 22.2 km/h 22% 0.0 mm CLR
14:49 28.3 °C 3.9 °C 1016.7 hPa ENE 10.0 km/h 18.0 km/h 21% 0.0 mm CLR
14:54 28.4 °C 4.6 °C 1016.7 hPa NW 10.0 km/h 13.0 km/h 22% 0.0 mm CLR
14:59 28.6 °C 4.1 °C 1016.7 hPa ESE 10.0 km/h 11.1 km/h 21% 0.0 mm CLR
15:04 28.4 °C 3.9 °C 1016.6 hPa WNW 10.0 km/h 16.7 km/h 21% 0.0 mm CLR
15:09 28.5 °C 4.1 °C 1016.6 hPa NE 12.2 km/h 20.4 km/h 21% 0.0 mm CLR
15:14 28.6 °C 4.8 °C 1016.6 hPa ESE 12.2 km/h 20.1 km/h 22% 0.0 mm CLR
15:19 28.4 °C 4.6 °C 1016.5 hPa ESE 14.0 km/h 16.7 km/h 22% 0.0 mm CLR
15:24 28.4 °C 4.6 °C 1016.5 hPa NNE 14.0 km/h 25.9 km/h 22% 0.0 mm CLR
15:29 28.4 °C 4.6 °C 1016.5 hPa NE 13.7 km/h 25.9 km/h 22% 0.0 mm CLR
15:34 28.5 °C 4.1 °C 1016.4 hPa SE 13.7 km/h 16.7 km/h 21% 0.0 mm CLR
15:39 28.6 °C 4.1 °C 1016.4 hPa ENE 13.7 km/h 20.4 km/h 21% 0.0 mm CLR
15:44 28.4 °C 3.9 °C 1016.4 hPa NE 13.7 km/h 22.5 km/h 21% 0.0 mm CLR
15:49 28.3 °C 3.9 °C 1016.3 hPa NNE 13.7 km/h 13.0 km/h 21% 0.0 mm CLR
15:54 28.5 °C 4.1 °C 1016.3 hPa ENE 13.7 km/h 18.5 km/h 21% 0.0 mm CLR
15:59 28.5 °C 4.1 °C 1016.3 hPa NE 13.0 km/h 16.7 km/h 21% 0.0 mm CLR
16:04 28.6 °C 4.1 °C 1016.3 hPa NE 13.0 km/h 18.3 km/h 21% 0.0 mm CLR
16:09 28.7 °C 4.2 °C 1016.3 hPa NNE 10.3 km/h 17.2 km/h 21% 0.0 mm CLR
16:14 28.7 °C 4.2 °C 1016.3 hPa North 10.3 km/h 14.8 km/h 21% 0.0 mm CLR
16:19 28.7 °C 4.2 °C 1016.3 hPa ENE 11.1 km/h 16.7 km/h 21% 0.0 mm CLR
16:24 28.6 °C 4.8 °C 1016.3 hPa ENE 11.1 km/h 25.9 km/h 22% 0.0 mm CLR
16:29 28.7 °C 4.9 °C 1016.3 hPa ENE 10.3 km/h 14.8 km/h 22% 0.0 mm CLR
16:34 28.8 °C 4.3 °C 1016.1 hPa NE 10.3 km/h 16.7 km/h 21% 0.0 mm CLR
16:39 28.9 °C 5.1 °C 1016.1 hPa ENE 11.1 km/h 20.4 km/h 22% 0.0 mm CLR
16:44 28.9 °C 5.1 °C 1016.1 hPa South 11.1 km/h 14.8 km/h 22% 0.0 mm CLR
16:49 28.9 °C 5.1 °C 1016.0 hPa NE 11.1 km/h 22.2 km/h 22% 0.0 mm CLR
16:54 28.9 °C 5.1 °C 1016.0 hPa ENE 11.1 km/h 13.0 km/h 22% 0.0 mm CLR
16:59 28.7 °C 5.5 °C 1016.0 hPa NNE 12.2 km/h 29.6 km/h 23% 0.0 mm CLR
17:04 28.4 °C 4.6 °C 1015.9 hPa NE 12.2 km/h 20.4 km/h 22% 0.0 mm CLR
17:09 28.3 °C 5.2 °C 1015.9 hPa East 15.6 km/h 23.3 km/h 23% 0.0 mm CLR
17:14 28.3 °C 5.2 °C 1015.9 hPa ENE 15.6 km/h 24.1 km/h 23% 0.0 mm CLR
17:19 28.4 °C 5.3 °C 1015.8 hPa NNE 15.6 km/h 18.5 km/h 23% 0.0 mm CLR
17:24 28.5 °C 4.7 °C 1015.8 hPa ENE 15.6 km/h 20.4 km/h 22% 0.0 mm CLR
17:29 28.4 °C 5.3 °C 1015.8 hPa NNE 12.2 km/h 17.2 km/h 23% 0.0 mm CLR
17:34 28.6 °C 5.4 °C 1015.8 hPa NE 12.2 km/h 20.4 km/h 23% 0.0 mm CLR
17:39 28.4 °C 5.3 °C 1015.8 hPa NNE 13.0 km/h 25.9 km/h 23% 0.0 mm CLR
17:44 28.3 °C 5.2 °C 1015.8 hPa ENE 13.0 km/h 20.4 km/h 23% 0.0 mm CLR
17:49 28.3 °C 5.8 °C 1015.9 hPa ENE 15.6 km/h 20.4 km/h 24% 0.0 mm CLR
17:54 28.2 °C 5.1 °C 1015.9 hPa ESE 15.6 km/h 18.5 km/h 23% 0.0 mm CLR
17:59 28.3 °C 5.8 °C 1015.9 hPa ENE 13.0 km/h 22.2 km/h 24% 0.0 mm CLR
18:04 28.3 °C 5.8 °C 1015.9 hPa ENE 13.0 km/h 27.8 km/h 24% 0.0 mm CLR
18:09 28.3 °C 5.8 °C 1015.9 hPa NE 12.2 km/h 19.8 km/h 24% 0.0 mm CLR
18:14 28.1 °C 5.6 °C 1015.9 hPa East 12.2 km/h 18.0 km/h 24% 0.0 mm CLR
18:19 28.1 °C 5.6 °C 1015.8 hPa NE 13.0 km/h 21.7 km/h 24% 0.0 mm CLR
18:24 28.0 °C 5.6 °C 1015.8 hPa NE 13.0 km/h 24.1 km/h 24% 0.0 mm CLR
18:29 27.9 °C 5.4 °C 1015.8 hPa NNE 13.7 km/h 18.5 km/h 24% 0.0 mm CLR
18:34 27.9 °C 5.4 °C 1015.8 hPa East 13.7 km/h 14.8 km/h 24% 0.0 mm CLR
18:39 27.9 °C 6.1 °C 1015.8 hPa NE 11.9 km/h 19.0 km/h 25% 0.0 mm CLR
18:44 27.7 °C 5.9 °C 1015.8 hPa NNE 11.9 km/h 16.7 km/h 25% 0.0 mm CLR
18:49 27.6 °C 5.8 °C 1015.7 hPa NE 14.8 km/h 25.9 km/h 25% 0.0 mm CLR
18:54 27.5 °C 6.3 °C 1015.7 hPa NNE 14.8 km/h 14.8 km/h 26% 0.0 mm CLR
18:59 27.6 °C 6.9 °C 1015.7 hPa East 13.7 km/h 16.7 km/h 27% 0.0 mm CLR
19:04 27.6 °C 6.9 °C 1015.6 hPa NNE 13.7 km/h 20.4 km/h 27% 0.0 mm CLR
19:09 27.4 °C 6.7 °C 1015.6 hPa North 11.9 km/h 20.4 km/h 27% 0.0 mm CLR
19:14 27.3 °C 6.7 °C 1015.6 hPa NNE 11.9 km/h 20.4 km/h 27% 0.0 mm CLR
19:19 27.2 °C 7.1 °C 1015.6 hPa NE 13.0 km/h 25.9 km/h 28% 0.0 mm CLR
19:24 27.1 °C 7.0 °C 1015.6 hPa North 13.0 km/h 16.7 km/h 28% 0.0 mm CLR
19:29 26.9 °C 7.3 °C 1015.6 hPa NE 14.0 km/h 22.2 km/h 29% 0.0 mm CLR
19:34 26.7 °C 7.7 °C 1015.7 hPa NE 14.0 km/h 16.7 km/h 30% 0.0 mm CLR
19:39 26.7 °C 7.7 °C 1015.7 hPa ENE 13.7 km/h 18.5 km/h 30% 0.0 mm CLR
19:44 26.6 °C 7.6 °C 1015.7 hPa NE 13.7 km/h 18.5 km/h 30% 0.0 mm CLR
19:49 26.4 °C 7.4 °C 1015.8 hPa NE 13.0 km/h 18.5 km/h 30% 0.0 mm CLR
19:54 26.2 °C 7.2 °C 1015.8 hPa ENE 13.0 km/h 20.4 km/h 30% 0.0 mm CLR
19:59 26.1 °C 7.2 °C 1015.8 hPa NNE 15.6 km/h 18.5 km/h 30% 0.0 mm CLR
20:04 26.0 °C 6.6 °C 1015.9 hPa NNE 15.6 km/h 20.4 km/h 29% 0.0 mm CLR
20:09 25.9 °C 6.0 °C 1015.9 hPa ENE 13.0 km/h 24.1 km/h 28% 0.0 mm CLR
20:14 25.8 °C 5.9 °C 1015.9 hPa NNE 13.0 km/h 24.1 km/h 28% 0.0 mm CLR
20:19 25.7 °C 5.8 °C 1015.9 hPa North 15.6 km/h 18.5 km/h 28% 0.0 mm CLR
20:24 25.6 °C 6.2 °C 1015.9 hPa NE 15.6 km/h 20.4 km/h 29% 0.0 mm CLR
20:29 25.5 °C 6.2 °C 1015.9 hPa NE 13.0 km/h 22.2 km/h 29% 0.0 mm CLR
20:34 25.4 °C 6.1 °C 1015.9 hPa ENE 13.0 km/h 18.5 km/h 29% 0.0 mm CLR
20:39 25.2 °C 6.4 °C 1015.9 hPa NE 14.0 km/h 20.4 km/h 30% 0.0 mm CLR
20:44 25.1 °C 6.3 °C 1015.9 hPa ENE 14.0 km/h 18.5 km/h 30% 0.0 mm CLR
20:49 25.0 °C 6.2 °C 1016.1 hPa NNE 13.0 km/h 22.2 km/h 30% 0.0 mm CLR
20:54 24.9 °C 6.1 °C 1016.1 hPa NE 13.0 km/h 16.7 km/h 30% 0.0 mm CLR
20:59 24.8 °C 6.5 °C 1016.1 hPa NE 12.2 km/h 14.8 km/h 31% 0.0 mm CLR
21:04 24.6 °C 7.3 °C 1016.2 hPa NE 12.2 km/h 14.8 km/h 33% 0.0 mm CLR
21:09 24.3 °C 7.4 °C 1016.2 hPa NNE 10.3 km/h 14.8 km/h 34% 0.0 mm CLR
21:14 24.0 °C 7.6 °C 1016.2 hPa NE 10.3 km/h 14.8 km/h 35% 0.0 mm CLR
21:19 23.8 °C 7.8 °C 1016.2 hPa NE 11.1 km/h 16.7 km/h 36% 0.0 mm CLR
21:24 23.6 °C 7.7 °C 1016.2 hPa NE 11.1 km/h 14.8 km/h 36% 0.0 mm CLR
21:29 23.4 °C 7.9 °C 1016.2 hPa ENE 11.1 km/h 14.8 km/h 37% 0.0 mm CLR
21:34 23.3 °C 8.2 °C 1016.4 hPa NE 11.1 km/h 11.1 km/h 38% 0.0 mm CLR
21:39 23.2 °C 8.5 °C 1016.4 hPa NE 8.7 km/h 16.1 km/h 39% 0.0 mm CLR
21:44 22.9 °C 8.6 °C 1016.4 hPa NNE 8.7 km/h 14.8 km/h 40% 0.0 mm CLR
21:49 22.8 °C 8.8 °C 1016.5 hPa NNE 10.3 km/h 13.0 km/h 41% 0.0 mm CLR
21:54 22.6 °C 9.4 °C 1016.5 hPa NE 10.3 km/h 18.5 km/h 43% 0.0 mm CLR
21:59 22.4 °C 10.2 °C 1016.5 hPa NNE 10.3 km/h 13.0 km/h 46% 0.0 mm CLR
22:04 22.2 °C 11.0 °C 1016.6 hPa NE 10.3 km/h 11.9 km/h 49% 0.0 mm CLR
22:09 22.0 °C 11.4 °C 1016.6 hPa North 9.5 km/h 13.0 km/h 51% 0.0 mm CLR
22:14 21.8 °C 11.5 °C 1016.6 hPa NNE 9.5 km/h 14.8 km/h 52% 0.0 mm CLR
22:19 21.7 °C 11.7 °C 1016.7 hPa ENE 10.0 km/h 14.8 km/h 53% 0.0 mm CLR
22:24 21.5 °C 11.5 °C 1016.7 hPa NNE 10.0 km/h 14.8 km/h 53% 0.0 mm CLR
22:29 21.4 °C 11.7 °C 1016.7 hPa NE 11.1 km/h 16.7 km/h 54% 0.0 mm CLR
22:34 21.3 °C 11.6 °C 1016.9 hPa NE 11.1 km/h 11.1 km/h 54% 0.0 mm CLR
22:39 21.2 °C 11.5 °C 1016.9 hPa NNE 8.7 km/h 18.5 km/h 54% 0.0 mm CLR
22:44 21.1 °C 11.4 °C 1016.9 hPa NNE 8.7 km/h 14.8 km/h 54% 0.0 mm CLR
22:49 21.0 °C 11.3 °C 1017.2 hPa NE 9.5 km/h 11.1 km/h 54% 0.0 mm CLR
22:54 20.9 °C 11.2 °C 1017.2 hPa NNE 9.5 km/h 8.4 km/h 54% 0.0 mm CLR
22:59 20.9 °C 11.2 °C 1017.2 hPa ENE 6.9 km/h 13.0 km/h 54% 0.0 mm CLR
23:04 20.8 °C 11.4 °C 1017.5 hPa NNE 6.9 km/h 14.8 km/h 55% 0.0 mm CLR
23:09 20.7 °C 11.6 °C 1017.5 hPa NE 8.7 km/h 14.8 km/h 56% 0.0 mm CLR
23:14 20.6 °C 11.8 °C 1017.5 hPa NNE 8.7 km/h 11.1 km/h 57% 0.0 mm CLR
23:19 20.5 °C 11.7 °C 1017.4 hPa NE 8.7 km/h 11.1 km/h 57% 0.0 mm CLR
23:24 20.4 °C 11.6 °C 1017.4 hPa NNE 8.7 km/h 13.0 km/h 57% 0.0 mm CLR
23:29 20.3 °C 11.5 °C 1017.4 hPa NE 9.5 km/h 11.1 km/h 57% 0.0 mm CLR
23:34 20.2 °C 11.7 °C 1017.5 hPa NE 9.5 km/h 13.0 km/h 58% 0.0 mm CLR
23:39 20.1 °C 11.6 °C 1017.5 hPa NNE 9.5 km/h 14.8 km/h 58% 0.0 mm CLR
23:44 20.0 °C 11.7 °C 1017.5 hPa ENE 9.5 km/h 13.0 km/h 59% 0.0 mm CLR
23:49 19.9 °C 11.9 °C 1017.6 hPa NNE 8.7 km/h 13.0 km/h 60% 0.0 mm CLR
23:54 19.8 °C 11.8 °C 1017.6 hPa NNE 8.7 km/h 13.0 km/h 60% 0.0 mm CLR
23:59 19.7 °C 11.9 °C 1017.6 hPa NNE 8.7 km/h 10.0 km/h 61% 0.0 mm CLR
Murcia-Puente Tocinos, España
Compliments of Weather Underground - 2.75 mb

La estación de MeteoMurcia.com, publica sus datos en los siguientes proyectos:

Weather Underground PWS IMURCIAP2 Meteoclimatic www.awekas.at

W3Counter
Web Analytics